Location: Treviso
(45.6669°N, 12.2430°E)
Time: 06:33:54
(UTC+02:00)

ITAMSAT 1 - Visible Passes

Search period start: 23 April 2019 00:00
Search period end: 03 May 2019 00:00
Orbit: 783 x 797 km, 98.9° (Epoch: 21 April)

Date Brightness Start Highest point End Pass type
(mag) Time Alt. Az. Time Alt. Az. Time Alt. Az.
23 Apr 9.6 05:28:17 10° NNE 05:32:53 31° E 05:37:27 10° SSE visible
24 Apr 10.3 04:59:45 10° NE 05:03:10 17° E 05:06:34 10° SE visible
27 Apr 10.2 05:10:32 10° NE 05:14:30 22° E 05:18:25 10° SE visible
28 Apr 10.6 04:42:56 10° ENE 04:44:42 12° E 04:46:27 10° ESE visible
30 Apr 9.9 05:21:26 10° NE 05:25:48 27° E 05:30:08 10° SSE visible
01 May 10.4 04:53:11 10° NE 04:56:03 15° E 04:58:54 10° ESE visible
